| time (UTC) | temp C | wind direction | speed KPH | gust KPH | rain 1hr cm | rain 24hr cm | rain mn cm | humidity % | barometer mb |
| 20260505170221 | 13 | 325 | 12.9 | 19.3 | 0.00 | 0.03 | 0.03 | 49 | 1014.7 |
| 20260505170041 | 12 | 305 | 12.9 | 19.3 | 0.00 | 0.03 | 0.03 | 48 | 1013.9 |
| 20260505165750 | 12 | 321 | 12.9 | 19.3 | 0.00 | 0.03 | 0.03 | 50 | 1014.6 |
| 20260505165240 | 12 | 328 | 12.9 | 19.3 | 0.00 | 0.03 | 0.03 | 51 | 1014.6 |
| 20260505164723 | 12 | 319 | 12.9 | 20.9 | 0.00 | 0.03 | 0.03 | 52 | 1014.6 |
| 20260505164524 | 12 | 325 | 9.7 | 22.5 | 0.00 | 0.03 | 0.03 | 53 | 1013.9 |
| 20260505164232 | 12 | 318 | 16.1 | 22.5 | 0.00 | 0.03 | 0.03 | 53 | 1014.6 |
| 20260505163743 | 12 | 327 | 14.5 | 22.5 | 0.00 | 0.03 | 0.03 | 53 | 1014.7 |
| 20260505163226 | 12 | 336 | 12.9 | 19.3 | 0.00 | 0.03 | 0.03 | 54 | 1014.6 |
| 20260505163026 | 11 | 308 | 11.3 | 19.3 | 0.00 | 0.03 | 0.03 | 56 | 1013.9 |
| 20260505162739 | 11 | 355 | 14.5 | 19.3 | 0.00 | 0.03 | 0.03 | 55 | 1014.4 |
| 20260505162223 | 11 | 320 | 12.9 | 17.7 | 0.00 | 0.03 | 0.03 | 57 | 1014.4 |
| 20260505161732 | 12 | 348 | 11.3 | 19.3 | 0.00 | 0.03 | 0.03 | 57 | 1014.3 |
| 20260505161536 | 11 | 355 | 9.7 | 19.3 | 0.00 | 0.03 | 0.03 | 57 | 1013.5 |
| 20260505161245 | 11 | 334 | 14.5 | 19.3 | 0.00 | 0.03 | 0.03 | 54 | 1014.3 |
| 20260505160726 | 11 | 331 | 9.7 | 16.1 | 0.00 | 0.03 | 0.03 | 58 | 1014.3 |
| 20260505160231 | 11 | 345 | 9.7 | 16.1 | 0.00 | 0.03 | 0.03 | 60 | 1014.3 |
| 20260505153306 | 11 | 355 | 12.9 | 17.7 | 0.00 | 0.03 | 0.03 | 55 | 1014.2 |
| 20260505153056 | 11 | 334 | 9.7 | 16.1 | 0.00 | 0.03 | 0.03 | 57 | 1013.4 |
| 20260505152729 | 11 | 344 | 6.4 | 12.9 | 0.00 | 0.03 | 0.03 | 57 | 1014.2 |
| 20260505152243 | 11 | 317 | 6.4 | 9.7 | 0.00 | 0.03 | 0.03 | 58 | 1014.0 |
| 20260505151724 | 11 | 294 | 6.4 | 11.3 | 0.00 | 0.03 | 0.03 | 58 | 1014.0 |
| 20260505151604 | 11 | 355 | 6.4 | 12.9 | 0.00 | 0.03 | 0.03 | 56 | 1013.1 |
| 20260505151237 | 11 | 340 | 6.4 | 14.5 | 0.00 | 0.03 | 0.03 | 56 | 1013.9 |
| 20260505150747 | 11 | 348 | 8.0 | 16.1 | 0.00 | 0.03 | 0.03 | 55 | 1013.7 |
| 20260505150237 | 11 | 22 | 9.7 | 16.1 | 0.00 | 0.03 | 0.03 | 54 | 1013.7 |
| 20260505140230 | 10 | 334 | 6.4 | 12.9 | 0.00 | 0.03 | 0.03 | 61 | 1013.5 |
| 20260505130233 | 9 | 315 | 3.2 | 6.4 | 0.00 | 0.03 | 0.03 | 69 | 1012.8 |
| 20260505124735 | 8 | 323 | 4.8 | 9.7 | 0.00 | 0.03 | 0.03 | 71 | 1012.6 |
| 20260505124540 | 8 | 319 | 4.8 | 9.7 | 0.00 | 0.03 | 0.03 | 71 | 1011.6 |
| 20260505124248 | 8 | 327 | 6.4 | 9.7 | 0.00 | 0.03 | 0.03 | 72 | 1012.4 |
| 20260505123728 | 8 | 326 | 6.4 | 9.7 | 0.00 | 0.03 | 0.03 | 74 | 1012.3 |
| 20260505123241 | 8 | 338 | 6.4 | 9.7 | 0.00 | 0.03 | 0.03 | 74 | 1012.0 |
| 20260505123035 | 8 | 325 | 6.4 | 12.9 | 0.00 | 0.03 | 0.03 | 75 | 1011.0 |
| 20260505122723 | 8 | 337 | 6.4 | 12.9 | 0.00 | 0.03 | 0.03 | 75 | 1011.8 |
| 20260505122235 | 8 | 332 | 6.4 | 12.9 | 0.00 | 0.03 | 0.03 | 76 | 1011.8 |
| 20260505121801 | 8 | 351 | 8.0 | 12.9 | 0.00 | 0.03 | 0.03 | 78 | 1011.8 |
| 20260505121518 | 8 | 360 | 4.8 | 9.7 | 0.00 | 0.03 | 0.03 | 79 | 1010.9 |
| 20260505121254 | 8 | 333 | 4.8 | 6.4 | 0.00 | 0.03 | 0.03 | 79 | 1011.8 |
| 20260505120742 | 8 | 341 | 4.8 | 6.4 | 0.00 | 0.03 | 0.03 | 80 | 1011.7 |
| 20260505120225 | 8 | 341 | 3.2 | 4.8 | 0.00 | 0.03 | 0.03 | 80 | 1011.6 |
| 20260505120005 | 8 | 355 | 1.6 | 4.8 | 0.00 | 0.03 | 0.03 | 80 | 1010.6 |
| 20260505115737 | 8 | 355 | 3.2 | 4.8 | 0.00 | 0.03 | 0.03 | 80 | 1011.6 |
| 20260505115247 | 8 | 355 | 3.2 | 6.4 | 0.00 | 0.03 | 0.03 | 81 | 1011.5 |
| 20260505114734 | 8 | 355 | 4.8 | 6.4 | 0.00 | 0.03 | 0.03 | 81 | 1011.3 |
| 20260505114531 | 8 | 355 | 3.2 | 8.0 | 0.00 | 0.03 | 0.03 | 81 | 1010.4 |
| 20260505114248 | 8 | 355 | 4.8 | 8.0 | 0.00 | 0.03 | 0.03 | 81 | 1011.2 |
| 20260505113730 | 8 | 5 | 6.4 | 8.0 | 0.00 | 0.03 | 0.03 | 81 | 1011.2 |
| 20260505113242 | 8 | 355 | 6.4 | 8.0 | 0.00 | 0.03 | 0.03 | 81 | 1011.2 |
| 20260505113030 | 8 | 360 | 4.8 | 8.0 | 0.00 | 0.03 | 0.03 | 81 | 1010.2 |
| 20260505112726 | 8 | 5 | 6.4 | 8.0 | 0.00 | 0.03 | 0.03 | 81 | 1011.2 |
| 20260505112236 | 8 | 5 | 6.4 | 8.0 | 0.00 | 0.03 | 0.03 | 80 | 1011.1 |
| 20260505111749 | 8 | 360 | 6.4 | 6.4 | 0.00 | 0.03 | 0.03 | 80 | 1011.2 |
| 20260505111525 | 8 | 360 | 4.8 | 6.4 | 0.00 | 0.03 | 0.03 | 80 | 1010.3 |
| 20260505111242 | 8 | 360 | 4.8 | 6.4 | 0.00 | 0.03 | 0.03 | 80 | 1011.3 |
| 20260505110749 | 8 | 253 | 4.8 | 6.4 | 0.00 | 0.03 | 0.03 | 79 | 1011.2 |
| 20260505110233 | 8 | 253 | 4.8 | 4.8 | 0.00 | 0.03 | 0.03 | 79 | 1011.2 |
| 20260505101721 | 8 | 253 | 3.2 | 4.8 | 0.00 | 0.03 | 0.03 | 79 | 1011.6 |
| 20260505101533 | 8 | 253 | 3.2 | 4.8 | 0.00 | 0.03 | 0.03 | 79 | 1010.6 |
| 20260505101234 | 8 | 253 | 3.2 | 4.8 | 0.00 | 0.03 | 0.03 | 79 | 1011.5 |
| 20260505100744 | 8 | 253 | 3.2 | 6.4 | 0.00 | 0.03 | 0.03 | 80 | 1011.5 |
| 20260505100229 | 9 | 253 | 4.8 | 6.4 | 0.00 | 0.03 | 0.03 | 80 | 1011.6 |
| 20260505100033 | 8 | 253 | 3.2 | 6.4 | 0.00 | 0.03 | 0.03 | 79 | 1010.7 |
| 20260505095742 | 9 | 267 | 4.8 | 6.4 | 0.00 | 0.03 | 0.03 | 79 | 1011.6 |
| 20260505095225 | 9 | 268 | 4.8 | 6.4 | 0.00 | 0.03 | 0.03 | 80 | 1011.6 |
| 20260505094733 | 9 | 240 | 4.8 | 6.4 | 0.00 | 0.03 | 0.03 | 79 | 1011.6 |
| 20260505094541 | 8 | 229 | 1.6 | 6.4 | 0.00 | 0.03 | 0.03 | 79 | 1010.6 |
| 20260505094248 | 9 | 229 | 3.2 | 6.4 | 0.00 | 0.03 | 0.03 | 79 | 1011.6 |
| 20260505093728 | 9 | 243 | 3.2 | 6.4 | 0.00 | 0.03 | 0.03 | 78 | 1011.5 |
| 20260505093240 | 9 | 275 | 3.2 | 6.4 | 0.00 | 0.03 | 0.03 | 77 | 1011.3 |
| 20260505093042 | 9 | 270 | 3.2 | 6.4 | 0.00 | 0.03 | 0.03 | 77 | 1010.4 |
| 20260505092723 | 9 | 296 | 4.8 | 6.4 | 0.00 | 0.03 | 0.03 | 77 | 1011.3 |
| 20260505092233 | 9 | 280 | 3.2 | 6.4 | 0.00 | 0.03 | 0.03 | 76 | 1011.2 |
| 20260505091744 | 9 | 303 | 4.8 | 6.4 | 0.00 | 0.03 | 0.03 | 76 | 1011.1 |
| 20260505091527 | 9 | 307 | 4.8 | 6.4 | 0.00 | 0.03 | 0.03 | 76 | 1010.0 |
| 20260505091229 | 9 | 306 | 4.8 | 6.4 | 0.00 | 0.03 | 0.03 | 76 | 1010.9 |
| 20260505090756 | 9 | 317 | 4.8 | 6.4 | 0.03 | 0.03 | 0.03 | 76 | 1010.8 |
| 20260505090245 | 9 | 319 | 3.2 | 4.8 | 0.03 | 0.03 | 0.03 | 76 | 1010.5 |
| 20260505090048 | 9 | 319 | 3.2 | 4.8 | 0.03 | 0.03 | 0.03 | 76 | 1009.6 |
| 20260505085735 | 10 | 319 | 3.2 | 4.8 | 0.03 | 0.03 | 0.03 | 76 | 1010.6 |
| 20260505085247 | 10 | 271 | 3.2 | 4.8 | 0.03 | 0.03 | 0.03 | 76 | 1010.5 |
| 20260505084731 | 10 | 271 | 3.2 | 6.4 | 0.03 | 0.03 | 0.03 | 76 | 1010.5 |
| 20260505084555 | 9 | 271 | 1.6 | 6.4 | 0.03 | 0.03 | 0.03 | 76 | 1009.6 |
| 20260505084245 | 10 | 267 | 4.8 | 6.4 | 0.03 | 0.03 | 0.03 | 76 | 1010.6 |
| 20260505083728 | 10 | 256 | 3.2 | 8.0 | 0.03 | 0.03 | 0.03 | 76 | 1010.6 |
| 20260505083235 | 10 | 258 | 4.8 | 8.0 | 0.03 | 0.03 | 0.03 | 75 | 1010.6 |
| 20260505083006 | 9 | 264 | 4.8 | 8.0 | 0.03 | 0.03 | 0.03 | 75 | 1009.6 |
| 20260505082806 | 10 | 259 | 4.8 | 12.9 | 0.03 | 0.03 | 0.03 | 75 | 1010.6 |
| 20260505082231 | 10 | 280 | 6.4 | 12.9 | 0.03 | 0.03 | 0.03 | 74 | 1010.7 |
| 20260505081742 | 10 | 289 | 8.0 | 11.3 | 0.03 | 0.03 | 0.03 | 72 | 1010.5 |
| 20260505081554 | 9 | 288 | 4.8 | 8.0 | 0.03 | 0.03 | 0.03 | 71 | 1009.4 |
| 20260505081226 | 10 | 292 | 4.8 | 6.4 | 0.03 | 0.03 | 0.03 | 71 | 1010.3 |
| 20260505080736 | 10 | 320 | 3.2 | 4.8 | 0.00 | 0.00 | 0.00 | 70 | 1009.9 |
| 20260505080255 | 10 | 320 | 3.2 | 8.0 | 0.00 | 0.00 | 0.00 | 69 | 1009.8 |
| 20260505080038 | 9 | 329 | 3.2 | 8.0 | 0.00 | 0.00 | 0.00 | 70 | 1008.7 |
| 20260505075751 | 10 | 345 | 4.8 | 8.0 | 0.00 | 0.00 | 0.00 | 70 | 1009.9 |
| 20260505075308 | 10 | 311 | 6.4 | 8.0 | 0.00 | 0.00 | 0.00 | 69 | 1010.0 |
| 20260505074830 | 10 | 299 | 4.8 | 6.4 | 0.00 | 0.00 | 0.00 | 69 | 1009.9 |
| 20260505074545 | 10 | 317 | 3.2 | 6.4 | 0.00 | 0.00 | 0.00 | 69 | 1008.9 |
| 20260505074234 | 10 | 317 | 3.2 | 6.4 | 0.00 | 0.00 | 0.00 | 69 | 1009.8 |
| 20260505073746 | 10 | 317 | 3.2 | 6.4 | 0.00 | 0.00 | 0.00 | 68 | 1009.8 |
| 20260505073230 | 10 | 284 | 6.4 | 6.4 | 0.00 | 0.00 | 0.00 | 68 | 1010.1 |
| 20260505073046 | 10 | 284 | 4.8 | 6.4 | 0.00 | 0.00 | 0.00 | 67 | 1009.2 |
| 20260505072736 | 10 | 280 | 3.2 | 4.8 | 0.00 | 0.00 | 0.00 | 67 | 1010.2 |
| 20260505072247 | 10 | 5 | 1.6 | 4.8 | 0.00 | 0.00 | 0.00 | 66 | 1009.8 |
| 20260505071729 | 10 | 5 | 1.6 | 4.8 | 0.00 | 0.00 | 0.00 | 65 | 1009.8 |
| 20260505071556 | 10 | 5 | 1.6 | 6.4 | 0.00 | 0.00 | 0.00 | 65 | 1008.8 |
| 20260505071302 | 10 | 5 | 3.2 | 6.4 | 0.00 | 0.00 | 0.00 | 64 | 1009.8 |
| 20260505070722 | 10 | 11 | 3.2 | 4.8 | 0.00 | 0.00 | 0.00 | 64 | 1009.7 |
| 20260505070233 | 10 | 11 | 1.6 | 4.8 | 0.00 | 0.00 | 0.00 | 63 | 1009.9 |
| 20260505070031 | 10 | 44 | 1.6 | 4.8 | 0.00 | 0.00 | 0.00 | 63 | 1008.9 |
| 20260505065742 | 10 | 34 | 1.6 | 4.8 | 0.00 | 0.00 | 0.00 | 63 | 1009.8 |
| 20260505065230 | 10 | 5 | 1.6 | 4.8 | 0.00 | 0.00 | 0.00 | 63 | 1009.9 |
| 20260505064743 | 10 | 5 | 3.2 | 6.4 | 0.00 | 0.00 | 0.00 | 62 | 1009.8 |
| 20260505064512 | 10 | 5 | 1.6 | 6.4 | 0.00 | 0.00 | 0.00 | 62 | 1008.8 |
| 20260505064229 | 10 | 5 | 3.2 | 8.0 | 0.00 | 0.00 | 0.00 | 62 | 1009.8 |
| 20260505063739 | 11 | 348 | 4.8 | 12.9 | 0.00 | 0.00 | 0.00 | 61 | 1010.0 |
| 20260505063250 | 11 | 26 | 8.0 | 12.9 | 0.00 | 0.00 | 0.00 | 61 | 1009.7 |
| 20260505063003 | 10 | 15 | 8.0 | 14.5 | 0.00 | 0.00 | 0.00 | 60 | 1008.9 |
| 20260505062732 | 11 | 5 | 8.0 | 17.7 | 0.00 | 0.00 | 0.00 | 60 | 1009.9 |
| 20260505062242 | 11 | 347 | 11.3 | 19.3 | 0.00 | 0.00 | 0.00 | 58 | 1010.1 |
| 20260505061726 | 11 | 5 | 14.5 | 19.3 | 0.00 | 0.00 | 0.00 | 56 | 1010.3 |
| 20260505061509 | 11 | 14 | 14.5 | 22.5 | 0.00 | 0.00 | 0.00 | 56 | 1009.3 |
| 20260505061236 | 11 | 360 | 11.3 | 22.5 | 0.00 | 0.00 | 0.00 | 56 | 1010.3 |
| 20260505060746 | 11 | 43 | 16.1 | 22.5 | 0.00 | 0.00 | 0.00 | 55 | 1009.8 |
| 20260505060234 | 11 | 322 | 9.7 | 22.5 | 0.00 | 0.00 | 0.00 | 55 | 1009.8 |
| 20260505060100 | 11 | 18 | 12.9 | 25.7 | 0.00 | 0.00 | 0.00 | 54 | 1008.7 |
| 20260505055746 | 11 | 11 | 12.9 | 29.0 | 0.00 | 0.00 | 0.00 | 55 | 1009.9 |
| 20260505055229 | 11 | 5 | 19.3 | 29.0 | 0.00 | 0.00 | 0.00 | 54 | 1010.1 |
| 20260505054741 | 11 | 20 | 19.3 | 30.6 | 0.00 | 0.00 | 0.00 | 55 | 1010.0 |
| 20260505054554 | 11 | 355 | 19.3 | 30.6 | 0.00 | 0.00 | 0.00 | 54 | 1009.0 |
| 20260505054225 | 11 | 5 | 19.3 | 30.6 | 0.00 | 0.00 | 0.00 | 54 | 1010.0 |
| 20260505053731 | 11 | 12 | 22.5 | 33.8 | 0.00 | 0.00 | 0.00 | 54 | 1009.8 |
| 20260505053243 | 11 | 12 | 20.9 | 33.8 | 0.00 | 0.00 | 0.00 | 54 | 1009.5 |
| 20260505053009 | 11 | 350 | 24.1 | 33.8 | 0.00 | 0.00 | 0.00 | 55 | 1008.5 |
| 20260505052727 | 11 | 12 | 22.5 | 33.8 | 0.00 | 0.00 | 0.00 | 55 | 1009.4 |
| 20260505052238 | 11 | 360 | 24.1 | 33.8 | 0.00 | 0.00 | 0.00 | 54 | 1009.3 |
| 20260505051749 | 11 | 17 | 24.1 | 33.8 | 0.00 | 0.00 | 0.00 | 55 | 1009.4 |
| 20260505051514 | 11 | 24 | 19.3 | 30.6 | 0.00 | 0.00 | 0.00 | 56 | 1008.5 |
| 20260505051233 | 11 | 5 | 19.3 | 30.6 | 0.00 | 0.00 | 0.00 | 56 | 1009.7 |
| 20260505050742 | 11 | 355 | 22.5 | 29.0 | 0.00 | 0.00 | 0.00 | 55 | 1010.0 |
| 20260505050226 | 11 | 19 | 19.3 | 32.2 | 0.00 | 0.00 | 0.00 | 56 | 1010.0 |
| 20260505041723 | 13 | 360 | 24.1 | 40.2 | 0.00 | 0.00 | 0.00 | 43 | 1010.0 |
| 20260505041522 | 12 | 355 | 22.5 | 40.2 | 0.00 | 0.00 | 0.00 | 43 | 1009.0 |
| 20260505041237 | 13 | 348 | 24.1 | 43.5 | 0.00 | 0.00 | 0.00 | 42 | 1010.0 |
| 20260505040747 | 13 | 360 | 27.4 | 43.5 | 0.00 | 0.00 | 0.00 | 42 | 1009.9 |
| 20260505040237 | 13 | 338 | 25.7 | 35.4 | 0.00 | 0.00 | 0.00 | 42 | 1009.7 |
| 20260505040004 | 13 | 348 | 22.5 | 38.6 | 0.00 | 0.00 | 0.00 | 42 | 1008.6 |
| 20260505035749 | 13 | 11 | 24.1 | 38.6 | 0.00 | 0.00 | 0.00 | 42 | 1009.6 |
| 20260505035230 | 13 | 10 | 29.0 | 38.6 | 0.00 | 0.00 | 0.00 | 42 | 1009.5 |
| 20260505034737 | 13 | 347 | 25.7 | 40.2 | 0.00 | 0.00 | 0.00 | 42 | 1009.5 |
| 20260505034515 | 13 | 351 | 25.7 | 41.8 | 0.00 | 0.00 | 0.00 | 42 | 1008.4 |
| 20260505034223 | 13 | 360 | 24.1 | 41.8 | 0.00 | 0.00 | 0.00 | 42 | 1009.5 |
| 20260505033733 | 13 | 348 | 30.6 | 41.8 | 0.00 | 0.00 | 0.00 | 42 | 1009.3 |
| 20260505033245 | 13 | 14 | 24.1 | 49.9 | 0.00 | 0.00 | 0.00 | 42 | 1009.0 |
| 20260505033012 | 13 | 355 | 27.4 | 49.9 | 0.00 | 0.00 | 0.00 | 42 | 1007.9 |
| 20260505032731 | 13 | 355 | 29.0 | 51.5 | 0.00 | 0.00 | 0.00 | 41 | 1008.9 |
| 20260505032241 | 13 | 20 | 35.4 | 51.5 | 0.00 | 0.00 | 0.00 | 40 | 1008.8 |
| 20260505031725 | 13 | 5 | 32.2 | 45.1 | 0.00 | 0.00 | 0.00 | 41 | 1009.0 |
| 20260505031518 | 13 | 15 | 29.0 | 48.3 | 0.00 | 0.00 | 0.00 | 41 | 1008.0 |
| 20260505031257 | 13 | 355 | 30.6 | 48.3 | 0.00 | 0.00 | 0.00 | 41 | 1009.0 |
| 20260505030740 | 13 | 355 | 35.4 | 54.7 | 0.00 | 0.00 | 0.00 | 41 | 1008.8 |
| 20260505030253 | 13 | 349 | 32.2 | 54.7 | 0.00 | 0.00 | 0.00 | 41 | 1008.7 |
| 20260505030038 | 13 | 5 | 38.6 | 56.3 | 0.00 | 0.00 | 0.00 | 41 | 1007.6 |
| 20260505025745 | 13 | 355 | 40.2 | 56.3 | 0.00 | 0.00 | 0.00 | 41 | 1008.6 |
| 20260505025255 | 14 | 14 | 35.4 | 56.3 | 0.00 | 0.00 | 0.00 | 42 | 1008.4 |
| 20260505024746 | 14 | 345 | 29.0 | 46.7 | 0.00 | 0.00 | 0.00 | 42 | 1008.7 |
| 20260505024539 | 13 | 32 | 25.7 | 46.7 | 0.00 | 0.00 | 0.00 | 42 | 1007.5 |
| 20260505024237 | 14 | 5 | 30.6 | 48.3 | 0.00 | 0.00 | 0.00 | 41 | 1008.5 |
| 20260505023742 | 14 | 13 | 35.4 | 48.3 | 0.00 | 0.00 | 0.00 | 41 | 1008.2 |
| 20260505023224 | 14 | 5 | 30.6 | 49.9 | 0.00 | 0.00 | 0.00 | 41 | 1008.1 |
| 20260505023036 | 14 | 346 | 35.4 | 49.9 | 0.00 | 0.00 | 0.00 | 41 | 1006.7 |
| 20260505022736 | 14 | 351 | 40.2 | 49.9 | 0.00 | 0.00 | 0.00 | 41 | 1007.7 |
| 20260505022246 | 14 | 5 | 32.2 | 53.1 | 0.00 | 0.00 | 0.00 | 41 | 1007.8 |
| 20260505021737 | 15 | 355 | 29.0 | 57.9 | 0.00 | 0.00 | 0.00 | 41 | 1007.7 |
| 20260505021515 | 14 | 355 | 43.5 | 57.9 | 0.00 | 0.00 | 0.00 | 41 | 1006.5 |
| 20260505021251 | 15 | 348 | 37.0 | 54.7 | 0.00 | 0.00 | 0.00 | 41 | 1007.3 |
| 20260505020739 | 15 | 26 | 41.8 | 54.7 | 0.00 | 0.00 | 0.00 | 41 | 1007.5 |
| 20260505020246 | 15 | 332 | 35.4 | 48.3 | 0.00 | 0.00 | 0.00 | 41 | 1007.6 |
| 20260505020105 | 15 | 355 | 29.0 | 48.3 | 0.00 | 0.00 | 0.00 | 41 | 1006.5 |
| 20260505015730 | 15 | 360 | 37.0 | 59.5 | 0.00 | 0.00 | 0.00 | 41 | 1007.7 |
| 20260505015242 | 15 | 5 | 32.2 | 59.5 | 0.00 | 0.00 | 0.00 | 40 | 1007.4 |
| 20260505014727 | 16 | 17 | 40.2 | 69.2 | 0.00 | 0.00 | 0.00 | 39 | 1007.0 |
| 20260505014508 | 15 | 355 | 46.7 | 69.2 | 0.00 | 0.00 | 0.00 | 38 | 1005.9 |
| 20260505014240 | 16 | 19 | 53.1 | 69.2 | 0.00 | 0.00 | 0.00 | 38 | 1006.8 |
| 20260505013721 | 16 | 351 | 35.4 | 53.1 | 0.00 | 0.00 | 0.00 | 38 | 1006.8 |
| 20260505013235 | 16 | 15 | 32.2 | 53.1 | 0.00 | 0.00 | 0.00 | 37 | 1006.8 |
| 20260505013007 | 16 | 355 | 27.4 | 53.1 | 0.00 | 0.00 | 0.00 | 37 | 1005.5 |
| 20260505012759 | 16 | 355 | 29.0 | 53.1 | 0.00 | 0.00 | 0.00 | 37 | 1006.8 |
| 20260505012249 | 17 | 5 | 35.4 | 53.1 | 0.00 | 0.00 | 0.00 | 36 | 1006.7 |
| 20260505011732 | 17 | 344 | 33.8 | 53.1 | 0.00 | 0.00 | 0.00 | 35 | 1006.6 |
| 20260505011555 | 17 | 13 | 29.0 | 53.1 | 0.00 | 0.00 | 0.00 | 35 | 1005.5 |
| 20260505011246 | 17 | 346 | 38.6 | 53.1 | 0.00 | 0.00 | 0.00 | 34 | 1006.6 |
| 20260505010728 | 17 | 360 | 32.2 | 62.8 | 0.00 | 0.00 | 0.00 | 34 | 1006.6 |
| 20260505010240 | 18 | 355 | 38.6 | 62.8 | 0.00 | 0.00 | 0.00 | 33 | 1006.4 |
| 20260505010109 | 17 | 5 | 45.1 | 62.8 | 0.00 | 0.00 | 0.00 | 33 | 1005.1 |
| 20260505005725 | 18 | 335 | 27.4 | 46.7 | 0.00 | 0.00 | 0.00 | 34 | 1006.3 |
| 20260505005236 | 18 | 9 | 32.2 | 48.3 | 0.00 | 0.00 | 0.00 | 33 | 1006.1 |
| 20260505004742 | 18 | 327 | 32.2 | 48.3 | 0.00 | 0.00 | 0.00 | 33 | 1006.1 |
| 20260505004556 | 18 | 350 | 29.0 | 46.7 | 0.00 | 0.00 | 0.00 | 32 | 1004.9 |
| 20260505004226 | 19 | 339 | 25.7 | 49.9 | 0.00 | 0.00 | 0.00 | 33 | 1006.1 |
| 20260505003736 | 19 | 5 | 32.2 | 51.5 | 0.00 | 0.00 | 0.00 | 32 | 1005.9 |
| 20260505003249 | 20 | 44 | 40.2 | 48.3 | 0.00 | 0.00 | 0.00 | 31 | 1005.7 |
| 20260505003020 | 20 | 355 | 33.8 | 48.3 | 0.00 | 0.00 | 0.00 | 31 | 1004.4 |
| 20260505002731 | 20 | 343 | 24.1 | 53.1 | 0.00 | 0.00 | 0.00 | 32 | 1005.8 |
| 20260505002243 | 20 | 351 | 38.6 | 53.1 | 0.00 | 0.00 | 0.00 | 31 | 1005.7 |
| 20260505001728 | 20 | 340 | 32.2 | 49.9 | 0.00 | 0.00 | 0.00 | 32 | 1005.4 |
| 20260505001514 | 20 | 355 | 37.0 | 49.9 | 0.00 | 0.00 | 0.00 | 32 | 1004.3 |
| 20260505001242 | 20 | 16 | 33.8 | 49.9 | 0.00 | 0.00 | 0.00 | 32 | 1005.4 |
| 20260505000724 | 21 | 355 | 33.8 | 48.3 | 0.00 | 0.00 | 0.00 | 31 | 1005.6 |
| 20260505000233 | 21 | 333 | 32.2 | 45.1 | 0.00 | 0.00 | 0.00 | 31 | 1005.6 |
| 20260505000016 | 21 | 11 | 27.4 | 45.1 | 0.00 | 0.00 | 0.00 | 31 | 1004.2 |
| 20260504235801 | 21 | 350 | 27.4 | 53.1 | 0.00 | 0.00 | 0.00 | 30 | 1005.6 |
| 20260504235224 | 21 | 5 | 35.4 | 54.7 | 0.00 | 0.00 | 0.00 | 29 | 1005.5 |
| 20260504234737 | 22 | 360 | 33.8 | 54.7 | 0.00 | 0.00 | 0.00 | 29 | 1005.3 |
| 20260504234552 | 22 | 12 | 27.4 | 43.5 | 0.00 | 0.00 | 0.00 | 30 | 1004.1 |
| 20260504234309 | 22 | 360 | 27.4 | 43.5 | 0.00 | 0.00 | 0.00 | 30 | 1005.4 |
| 20260504233729 | 22 | 9 | 27.4 | 46.7 | 0.00 | 0.00 | 0.00 | 31 | 1005.4 |
| 20260504233237 | 22 | 317 | 25.7 | 46.7 | 0.00 | 0.00 | 0.00 | 30 | 1005.2 |
| 20260504233030 | 22 | 355 | 29.0 | 46.7 | 0.00 | 0.00 | 0.00 | 30 | 1003.8 |
| 20260504232748 | 22 | 336 | 27.4 | 38.6 | 0.00 | 0.00 | 0.00 | 30 | 1005.1 |
| 20260504232237 | 22 | 355 | 27.4 | 41.8 | 0.00 | 0.00 | 0.00 | 29 | 1005.0 |
| 20260504231747 | 22 | 360 | 30.6 | 43.5 | 0.00 | 0.00 | 0.00 | 28 | 1005.0 |
| 20260504231515 | 22 | 15 | 27.4 | 43.5 | 0.00 | 0.00 | 0.00 | 28 | 1003.7 |
| 20260504231231 | 22 | 355 | 30.6 | 43.5 | 0.00 | 0.00 | 0.00 | 29 | 1004.9 |
| 20260504230742 | 23 | 355 | 29.0 | 48.3 | 0.00 | 0.00 | 0.00 | 29 | 1004.8 |
| 20260504230253 | 23 | 344 | 29.0 | 48.3 | 0.00 | 0.00 | 0.00 | 29 | 1004.7 |
| 20260504230025 | 23 | 327 | 32.2 | 48.3 | 0.00 | 0.00 | 0.00 | 29 | 1003.3 |
| 20260504225800 | 23 | 5 | 27.4 | 45.1 | 0.00 | 0.00 | 0.00 | 29 | 1004.6 |
| 20260504225224 | 23 | 334 | 30.6 | 43.5 | 0.00 | 0.00 | 0.00 | 29 | 1004.4 |
| 20260504224735 | 23 | 5 | 22.5 | 41.8 | 0.00 | 0.00 | 0.00 | 30 | 1004.4 |
| 20260504224509 | 23 | 349 | 29.0 | 41.8 | 0.00 | 0.00 | 0.00 | 29 | 1002.9 |
| 20260504224309 | 23 | 338 | 27.4 | 48.3 | 0.00 | 0.00 | 0.00 | 29 | 1004.2 |
| 20260504223730 | 24 | 348 | 27.4 | 48.3 | 0.00 | 0.00 | 0.00 | 29 | 1004.1 |
| 20260504223243 | 24 | 323 | 32.2 | 46.7 | 0.00 | 0.00 | 0.00 | 28 | 1003.9 |
| 20260504223043 | 24 | 338 | 32.2 | 46.7 | 0.00 | 0.00 | 0.00 | 28 | 1002.5 |
| 20260504222726 | 25 | 351 | 25.7 | 43.5 | 0.00 | 0.00 | 0.00 | 28 | 1003.8 |
| 20260504222234 | 25 | 360 | 32.2 | 43.5 | 0.00 | 0.00 | 0.00 | 27 | 1003.7 |
| 20260504221745 | 25 | 338 | 29.0 | 41.8 | 0.00 | 0.00 | 0.00 | 28 | 1003.6 |
| 20260504221545 | 25 | 333 | 29.0 | 41.8 | 0.00 | 0.00 | 0.00 | 28 | 1002.3 |
| 20260504221229 | 25 | 346 | 22.5 | 41.8 | 0.00 | 0.00 | 0.00 | 29 | 1003.4 |
| 20260504220739 | 25 | 10 | 30.6 | 41.8 | 0.00 | 0.00 | 0.00 | 28 | 1003.3 |
| 20260504220224 | 25 | 5 | 25.7 | 38.6 | 0.00 | 0.00 | 0.00 | 28 | 1003.2 |
| 20260504220051 | 25 | 347 | 24.1 | 38.6 | 0.00 | 0.00 | 0.00 | 28 | 1001.9 |
| 20260504215736 | 25 | 5 | 24.1 | 38.6 | 0.00 | 0.00 | 0.00 | 29 | 1003.3 |
| 20260504215248 | 26 | 24 | 24.1 | 43.5 | 0.00 | 0.00 | 0.00 | 31 | 1003.2 |
| 20260504214733 | 26 | 16 | 25.7 | 43.5 | 0.00 | 0.00 | 0.00 | 29 | 1003.4 |
| 20260504214559 | 26 | 335 | 30.6 | 43.5 | 0.00 | 0.00 | 0.00 | 29 | 1001.9 |
| 20260504214500 | 26 | 305 | 27.4 | 43.5 | 0.00 | 0.00 | 0.00 | 28 | 1001.9 |
| 20260504214243 | 26 | 333 | 22.5 | 37.0 | 0.00 | 0.00 | 0.00 | 31 | 1003.3 |
| 20260504213725 | 26 | 360 | 24.1 | 38.6 | 0.00 | 0.00 | 0.00 | 32 | 1003.2 |
| 20260504213239 | 26 | 355 | 25.7 | 38.6 | 0.00 | 0.00 | 0.00 | 30 | 1003.2 |
| 20260504213011 | 26 | 333 | 29.0 | 38.6 | 0.00 | 0.00 | 0.00 | 29 | 1001.9 |
| 20260504212749 | 26 | 355 | 22.5 | 38.6 | 0.00 | 0.00 | 0.00 | 31 | 1003.2 |
| 20260504212233 | 26 | 30 | 22.5 | 37.0 | 0.00 | 0.00 | 0.00 | 33 | 1003.2 |
| 20260504211746 | 26 | 338 | 27.4 | 40.2 | 0.00 | 0.00 | 0.00 | 31 | 1003.1 |
| 20260504211557 | 26 | 5 | 25.7 | 40.2 | 0.00 | 0.00 | 0.00 | 31 | 1001.7 |
| 20260504211237 | 26 | 350 | 27.4 | 40.2 | 0.00 | 0.00 | 0.00 | 32 | 1003.1 |
| 20260504210746 | 26 | 29 | 22.5 | 41.8 | 0.00 | 0.00 | 0.00 | 32 | 1003.0 |
| 20260504210238 | 26 | 12 | 30.6 | 41.8 | 0.00 | 0.00 | 0.00 | 31 | 1003.0 |
| 20260504210054 | 26 | 340 | 29.0 | 40.2 | 0.00 | 0.00 | 0.00 | 33 | 1001.7 |
| 20260504205721 | 27 | 351 | 17.7 | 30.6 | 0.00 | 0.00 | 0.00 | 34 | 1003.0 |
| 20260504205232 | 27 | 351 | 22.5 | 41.8 | 0.00 | 0.00 | 0.00 | 32 | 1002.9 |
| 20260504204748 | 27 | 360 | 27.4 | 41.8 | 0.00 | 0.00 | 0.00 | 33 | 1002.9 |
| 20260504204559 | 26 | 340 | 24.1 | 37.0 | 0.00 | 0.00 | 0.00 | 33 | 1001.5 |
| 20260504204232 | 27 | 355 | 22.5 | 35.4 | 0.00 | 0.00 | 0.00 | 32 | 1003.0 |
| 20260504203742 | 27 | 327 | 24.1 | 35.4 | 0.00 | 0.00 | 0.00 | 32 | 1002.9 |
| 20260504203226 | 27 | 355 | 22.5 | 33.8 | 0.00 | 0.00 | 0.00 | 30 | 1002.8 |
| 20260504203106 | 27 | 15 | 24.1 | 33.8 | 0.00 | 0.00 | 0.00 | 34 | 1001.5 |
| 20260504202752 | 27 | 321 | 25.7 | 38.6 | 0.00 | 0.00 | 0.00 | 32 | 1002.7 |
| 20260504202244 | 27 | 336 | 25.7 | 38.6 | 0.00 | 0.00 | 0.00 | 32 | 1002.9 |
| 20260504201728 | 27 | 346 | 25.7 | 35.4 | 0.00 | 0.00 | 0.00 | 32 | 1002.9 |
| 20260504201541 | 27 | 331 | 16.1 | 35.4 | 0.00 | 0.00 | 0.00 | 31 | 1001.5 |
| 20260504201241 | 27 | 321 | 22.5 | 37.0 | 0.00 | 0.00 | 0.00 | 31 | 1003.1 |
| 20260504200724 | 27 | 350 | 24.1 | 38.6 | 0.00 | 0.00 | 0.00 | 31 | 1002.9 |
| 20260504200235 | 27 | 304 | 20.9 | 38.6 | 0.00 | 0.00 | 0.00 | 31 | 1002.9 |
| 20260504200047 | 27 | 360 | 25.7 | 38.6 | 0.00 | 0.00 | 0.00 | 32 | 1001.5 |
| 20260504195747 | 27 | 351 | 24.1 | 40.2 | 0.00 | 0.00 | 0.00 | 31 | 1002.8 |
| 20260504195228 | 28 | 360 | 20.9 | 41.8 | 0.00 | 0.00 | 0.00 | 33 | 1002.7 |
| 20260504194732 | 27 | 319 | 25.7 | 33.8 | 0.00 | 0.00 | 0.00 | 33 | 1002.8 |
| 20260504194600 | 27 | 328 | 20.9 | 35.4 | 0.00 | 0.00 | 0.00 | 32 | 1001.6 |
| 20260504194246 | 28 | 360 | 22.5 | 37.0 | 0.00 | 0.00 | 0.00 | 31 | 1002.8 |
| 20260504193736 | 28 | 346 | 25.7 | 37.0 | 0.00 | 0.00 | 0.00 | 31 | 1002.7 |
| 20260504193246 | 28 | 351 | 19.3 | 40.2 | 0.00 | 0.00 | 0.00 | 30 | 1002.6 |
| 20260504193036 | 28 | 338 | 24.1 | 40.2 | 0.00 | 0.00 | 0.00 | 30 | 1001.3 |
| 20260504192728 | 28 | 319 | 20.9 | 32.2 | 0.00 | 0.00 | 0.00 | 30 | 1002.5 |
| 20260504192239 | 28 | 323 | 12.9 | 37.0 | 0.00 | 0.00 | 0.00 | 28 | 1002.6 |
| 20260504191721 | 29 | 291 | 22.5 | 37.0 | 0.00 | 0.00 | 0.00 | 28 | 1002.5 |
| 20260504191545 | 28 | 308 | 19.3 | 33.8 | 0.00 | 0.00 | 0.00 | 28 | 1001.3 |
| 20260504191231 | 29 | 319 | 19.3 | 38.6 | 0.00 | 0.00 | 0.00 | 28 | 1002.5 |
| 20260504190741 | 28 | 300 | 22.5 | 38.6 | 0.00 | 0.00 | 0.00 | 28 | 1002.5 |
| 20260504190224 | 28 | 321 | 14.5 | 33.8 | 0.00 | 0.00 | 0.00 | 30 | 1002.4 |
| 20260504190108 | 28 | 283 | 20.9 | 40.2 | 0.00 | 0.00 | 0.00 | 29 | 1001.2 |
| 20260504185736 | 28 | 317 | 22.5 | 40.2 | 0.00 | 0.00 | 0.00 | 28 | 1002.4 |
| 20260504185248 | 28 | 318 | 24.1 | 41.8 | 0.00 | 0.00 | 0.00 | 26 | 1002.3 |
| 20260504184739 | 28 | 9 | 20.9 | 35.4 | 0.00 | 0.00 | 0.00 | 27 | 1002.3 |
| 20260504184535 | 28 | 315 | 20.9 | 35.4 | 0.00 | 0.00 | 0.00 | 28 | 1001.2 |
| 20260504184224 | 28 | 313 | 20.9 | 32.2 | 0.00 | 0.00 | 0.00 | 29 | 1002.4 |
| 20260504183733 | 28 | 285 | 19.3 | 33.8 | 0.00 | 0.00 | 0.00 | 29 | 1002.4 |
| 20260504183241 | 28 | 290 | 22.5 | 33.8 | 0.00 | 0.00 | 0.00 | 29 | 1002.3 |
| 20260504183036 | 28 | 303 | 24.1 | 37.0 | 0.00 | 0.00 | 0.00 | 29 | 1001.2 |
| 20260504182722 | 28 | 318 | 20.9 | 37.0 | 0.00 | 0.00 | 0.00 | 30 | 1002.5 |
| 20260504182234 | 28 | 304 | 27.4 | 40.2 | 0.00 | 0.00 | 0.00 | 28 | 1002.6 |
| 20260504181746 | 28 | 303 | 24.1 | 40.2 | 0.00 | 0.00 | 0.00 | 28 | 1002.6 |
| 20260504181524 | 27 | 301 | 20.9 | 40.2 | 0.00 | 0.00 | 0.00 | 30 | 1001.4 |
| 20260504181229 | 28 | 332 | 25.7 | 40.2 | 0.00 | 0.00 | 0.00 | 29 | 1002.6 |
| 20260504180739 | 28 | 294 | 22.5 | 35.4 | 0.00 | 0.00 | 0.00 | 27 | 1002.6 |
| 20260504180222 | 28 | 288 | 22.5 | 35.4 | 0.00 | 0.00 | 0.00 | 29 | 1002.7 |
| 20260504180029 | 28 | 294 | 24.1 | 35.4 | 0.00 | 0.00 | 0.00 | 28 | 1001.5 |
| 20260504175730 | 28 | 313 | 20.9 | 35.4 | 0.00 | 0.00 | 0.00 | 31 | 1002.6 |
| 20260504175240 | 28 | 316 | 24.1 | 38.6 | 0.00 | 0.00 | 0.00 | 32 | 1002.7 |
| 20260504174723 | 28 | 332 | 27.4 | 38.6 | 0.00 | 0.00 | 0.00 | 29 | 1002.8 |
| 20260504174529 | 28 | 309 | 22.5 | 38.6 | 0.00 | 0.00 | 0.00 | 31 | 1001.6 |
| 20260504174236 | 27 | 340 | 24.1 | 33.8 | 0.00 | 0.00 | 0.00 | 32 | 1002.7 |
| 20260504173747 | 27 | 339 | 14.5 | 25.7 | 0.00 | 0.00 | 0.00 | 32 | 1002.8 |
| 20260504173230 | 27 | 319 | 17.7 | 30.6 | 0.00 | 0.00 | 0.00 | 32 | 1002.9 |
| 20260504173027 | 27 | 338 | 17.7 | 37.0 | 0.00 | 0.00 | 0.00 | 33 | 1001.7 |
| 20260504172742 | 27 | 296 | 16.1 | 37.0 | 0.00 | 0.00 | 0.00 | 33 | 1003.0 |
| 20260504172225 | 27 | 277 | 16.1 | 24.1 | 0.00 | 0.00 | 0.00 | 32 | 1003.0 |
| 20260504171733 | 27 | 292 | 16.1 | 33.8 | 0.00 | 0.00 | 0.00 | 33 | 1003.0 |
| 20260504171535 | 27 | 314 | 14.5 | 33.8 | 0.00 | 0.00 | 0.00 | 34 | 1001.9 |
| 20260504171245 | 27 | 292 | 22.5 | 33.8 | 0.00 | 0.00 | 0.00 | 34 | 1003.2 |
| 20260504170727 | 26 | 319 | 16.1 | 30.6 | 0.00 | 0.00 | 0.00 | 35 | 1003.3 |